Time,TemperatureF,DewpointF,PressureIn,WindDirection,WindDirectionDegrees,WindSpeedMPH,WindSpeedGustMPH,Humidity,HourlyPrecipIn,Conditions,Clouds,dailyrainin,SoftwareType,DateUTC
2011-08-10 00:03:00,71.8,42.5,29.94,WNW,292,0.0,0.0,35,0.00,,,0.00,open2300-1.11,2011-08-10 06:03:00,
2011-08-10 00:13:00,71.2,42.8,29.94,WNW,292,0.0,0.0,36,0.00,,,0.00,open2300-1.11,2011-08-10 06:13:00,
2011-08-10 00:23:00,70.5,42.8,29.94,WNW,292,0.0,0.0,37,0.00,,,0.00,open2300-1.11,2011-08-10 06:23:00,
2011-08-10 00:33:00,69.4,42.6,29.94,WNW,292,0.0,0.0,38,0.00,,,0.00,open2300-1.11,2011-08-10 06:33:00,
2011-08-10 00:43:00,69.3,42.5,29.94,WNW,292,0.0,0.0,38,0.00,,,0.00,open2300-1.11,2011-08-10 06:43:00,
2011-08-10 00:53:00,68.9,42.9,29.93,WNW,292,0.0,0.0,39,0.00,,,0.00,open2300-1.11,2011-08-10 06:53:00,
2011-08-10 01:03:00,68.5,43.3,29.93,NE,45,0.0,0.0,40,0.00,,,0.00,open2300-1.11,2011-08-10 07:03:00,
2011-08-10 01:13:00,68.4,43.1,29.93,East,90,0.0,0.0,40,0.00,,,0.00,open2300-1.11,2011-08-10 07:13:00,
2011-08-10 01:23:00,68.5,43.9,29.92,ENE,67,4.2,4.2,41,0.00,,,0.00,open2300-1.11,2011-08-10 07:23:00,
2011-08-10 01:33:00,68.7,44.6,29.93,East,90,1.8,4.2,42,0.00,,,0.00,open2300-1.11,2011-08-10 07:33:00,
2011-08-10 01:43:00,68.7,44.6,29.92,East,90,5.8,5.8,42,0.00,,,0.00,open2300-1.11,2011-08-10 07:43:00,
2011-08-10 01:53:00,68.7,44.6,29.92,East,90,0.0,5.8,42,0.00,,,0.00,open2300-1.11,2011-08-10 07:53:00,
2011-08-10 02:03:00,68.7,44.0,29.92,SE,135,0.0,2.5,41,0.00,,,0.00,open2300-1.11,2011-08-10 08:03:00,
2011-08-10 02:13:00,68.7,44.6,29.92,ENE,67,3.1,4.7,42,0.00,,,0.00,open2300-1.11,2011-08-10 08:13:00,
2011-08-10 02:23:00,68.4,44.3,29.92,East,90,3.8,3.8,42,0.00,,,0.00,open2300-1.11,2011-08-10 08:23:00,
2011-08-10 02:33:00,68.2,44.7,29.91,East,90,1.8,9.4,43,0.00,,,0.00,open2300-1.11,2011-08-10 08:33:00,
2011-08-10 02:43:00,67.8,43.8,29.91,East,90,0.0,5.8,42,0.00,,,0.00,open2300-1.11,2011-08-10 08:43:00,
2011-08-10 02:53:00,67.8,43.8,29.91,East,90,0.0,1.8,42,0.00,,,0.00,open2300-1.11,2011-08-10 08:53:00,
2011-08-10 03:03:00,67.8,43.8,29.91,ESE,112,3.4,3.4,42,0.00,,,0.00,open2300-1.11,2011-08-10 09:03:00,
2011-08-10 03:13:00,67.6,43.7,29.92,East,90,0.0,3.4,42,0.00,,,0.00,open2300-1.11,2011-08-10 09:13:00,
2011-08-10 03:23:00,67.3,43.3,29.91,SSE,157,0.0,0.0,42,0.00,,,0.00,open2300-1.11,2011-08-10 09:23:00,
2011-08-10 03:33:00,66.9,43.6,29.91,ESE,112,0.0,5.4,43,0.00,,,0.00,open2300-1.11,2011-08-10 09:33:00,
2011-08-10 03:43:00,66.7,43.5,29.91,NE,45,0.0,0.0,43,0.00,,,0.00,open2300-1.11,2011-08-10 09:43:00,
2011-08-10 03:53:00,66.7,42.8,29.91,ENE,67,0.2,0.2,42,0.00,,,0.00,open2300-1.11,2011-08-10 09:53:00,
2011-08-10 04:03:00,66.6,43.3,29.91,East,90,5.8,5.8,43,0.00,,,0.00,open2300-1.11,2011-08-10 10:03:00,
2011-08-10 04:13:00,66.6,43.9,29.91,East,90,4.0,5.8,44,0.00,,,0.00,open2300-1.11,2011-08-10 10:13:00,
2011-08-10 04:23:00,66.4,43.7,29.91,East,90,0.0,4.5,44,0.00,,,0.00,open2300-1.11,2011-08-10 10:23:00,
2011-08-10 04:33:00,66.2,43.6,29.91,East,90,3.1,5.6,44,0.00,,,0.00,open2300-1.11,2011-08-10 10:33:00,
2011-08-10 04:43:00,66.0,43.4,29.91,East,90,2.2,4.0,44,0.00,,,0.00,open2300-1.11,2011-08-10 10:43:00,
2011-08-10 04:53:00,65.8,43.8,29.91,East,90,3.8,5.1,45,0.00,,,0.00,open2300-1.11,2011-08-10 10:53:00,
2011-08-10 05:03:00,65.5,43.5,29.91,East,90,0.0,4.9,45,0.00,,,0.00,open2300-1.11,2011-08-10 11:03:00,
2011-08-10 05:13:00,65.1,43.1,29.91,ENE,67,2.9,2.9,45,0.00,,,0.00,open2300-1.11,2011-08-10 11:13:00,
2011-08-10 05:23:00,64.9,43.5,29.91,East,90,1.8,3.8,46,0.00,,,0.00,open2300-1.11,2011-08-10 11:23:00,
2011-08-10 05:33:00,64.8,43.4,29.91,ENE,67,0.0,3.4,46,0.00,,,0.00,open2300-1.11,2011-08-10 11:33:00,
2011-08-10 05:43:00,64.6,42.6,29.91,SSW,202,0.0,0.0,45,0.00,,,0.00,open2300-1.11,2011-08-10 11:43:00,
2011-08-10 05:53:00,64.2,42.8,29.92,ENE,67,0.0,1.1,46,0.00,,,0.00,open2300-1.11,2011-08-10 11:53:00,
2011-08-10 06:03:00,64.0,42.7,29.92,SE,135,0.0,4.7,46,0.00,,,0.00,open2300-1.11,2011-08-10 12:03:00,
2011-08-10 06:13:00,64.0,43.8,29.92,East,90,6.3,6.3,48,0.00,,,0.00,open2300-1.11,2011-08-10 12:13:00,
2011-08-10 06:23:00,63.7,43.5,29.92,NE,45,2.0,6.3,48,0.00,,,0.00,open2300-1.11,2011-08-10 12:23:00,
2011-08-10 06:33:00,63.7,43.5,29.92,East,90,4.9,6.5,48,0.00,,,0.00,open2300-1.11,2011-08-10 12:33:00,
2011-08-10 06:43:00,63.3,43.8,29.92,East,90,2.0,4.9,49,0.00,,,0.00,open2300-1.11,2011-08-10 12:43:00,
2011-08-10 06:53:00,63.3,43.8,29.93,East,90,2.9,2.9,49,0.00,,,0.00,open2300-1.11,2011-08-10 12:53:00,
2011-08-10 07:03:00,63.3,44.3,29.93,East,90,4.9,6.3,50,0.00,,,0.00,open2300-1.11,2011-08-10 13:03:00,
2011-08-10 07:13:00,63.3,43.8,29.93,ENE,67,0.0,4.9,49,0.00,,,0.00,open2300-1.11,2011-08-10 13:13:00,
2011-08-10 07:23:00,63.7,44.1,29.94,ENE,67,3.1,6.3,49,0.00,,,0.00,open2300-1.11,2011-08-10 13:23:00,
2011-08-10 07:33:00,64.0,44.4,29.94,ENE,67,0.0,3.1,49,0.00,,,0.00,open2300-1.11,2011-08-10 13:33:00,
2011-08-10 07:43:00,64.6,44.3,29.94,East,90,0.2,0.7,48,0.00,,,0.00,open2300-1.11,2011-08-10 13:43:00,
2011-08-10 07:53:00,64.9,44.7,29.94,ENE,67,1.3,3.1,48,0.00,,,0.00,open2300-1.11,2011-08-10 13:53:00,
2011-08-10 08:03:00,65.7,45.4,29.95,East,90,5.1,5.1,48,0.00,,,0.00,open2300-1.11,2011-08-10 14:03:00,
2011-08-10 08:13:00,66.4,45.5,29.95,ENE,67,0.0,5.1,47,0.00,,,0.00,open2300-1.11,2011-08-10 14:13:00,
2011-08-10 08:23:00,66.9,46.0,29.95,SSE,157,0.0,0.0,47,0.00,,,0.00,open2300-1.11,2011-08-10 14:23:00,
2011-08-10 08:33:00,67.3,45.7,29.95,East,90,0.0,0.0,46,0.00,,,0.00,open2300-1.11,2011-08-10 14:33:00,
2011-08-10 08:43:00,68.2,46.5,29.96,East,90,0.0,4.0,46,0.00,,,0.00,open2300-1.11,2011-08-10 14:43:00,
2011-08-10 08:53:00,69.1,46.7,29.96,East,90,0.0,0.0,45,0.00,,,0.00,open2300-1.11,2011-08-10 14:53:00,
2011-08-10 09:03:00,70.0,47.0,29.96,East,90,0.0,0.0,44,0.00,,,0.00,open2300-1.11,2011-08-10 15:03:00,
2011-08-10 09:13:00,70.9,47.2,29.96,ESE,112,0.0,0.0,43,0.00,,,0.00,open2300-1.11,2011-08-10 15:13:00,
2011-08-10 09:23:00,71.4,47.7,29.96,ESE,112,0.0,0.0,43,0.00,,,0.00,open2300-1.11,2011-08-10 15:23:00,
2011-08-10 09:33:00,72.3,47.9,29.95,ESE,112,0.0,0.0,42,0.00,,,0.00,open2300-1.11,2011-08-10 15:33:00,
2011-08-10 09:43:00,73.0,48.5,29.95,NW,315,0.0,0.0,42,0.00,,,0.00,open2300-1.11,2011-08-10 15:43:00,
2011-08-10 09:53:00,73.6,49.6,29.95,WNW,292,0.0,0.0,43,0.00,,,0.00,open2300-1.11,2011-08-10 15:53:00,
2011-08-10 10:03:00,74.8,50.8,29.95,NW,315,0.0,3.1,43,0.00,,,0.00,open2300-1.11,2011-08-10 16:03:00,
2011-08-10 10:13:00,76.1,51.3,29.95,NW,315,0.0,2.7,42,0.00,,,0.00,open2300-1.11,2011-08-10 16:13:00,
2011-08-10 10:23:00,76.8,51.3,29.95,West,270,0.0,5.1,41,0.00,,,0.00,open2300-1.11,2011-08-10 16:23:00,
2011-08-10 10:33:00,77.9,51.7,29.96,West,270,2.9,2.9,40,0.00,,,0.00,open2300-1.11,2011-08-10 16:33:00,
2011-08-10 10:43:00,78.6,51.6,29.95,WNW,292,0.0,2.9,39,0.00,,,0.00,open2300-1.11,2011-08-10 16:43:00,
2011-08-10 10:53:00,79.2,51.3,29.96,NNW,337,0.0,0.0,38,0.00,,,0.00,open2300-1.11,2011-08-10 16:53:00,
2011-08-10 11:03:00,80.1,51.3,29.96,NNE,22,0.0,4.7,37,0.00,,,0.00,open2300-1.11,2011-08-10 17:03:00,
2011-08-10 11:13:00,80.6,51.8,29.96,NNW,337,2.0,2.9,37,0.00,,,0.00,open2300-1.11,2011-08-10 17:13:00,
2011-08-10 11:23:00,81.1,51.5,29.96,WSW,247,0.0,2.0,36,0.00,,,0.00,open2300-1.11,2011-08-10 17:23:00,
2011-08-10 11:33:00,81.7,51.2,29.95,NNW,337,0.0,4.2,35,0.00,,,0.00,open2300-1.11,2011-08-10 17:33:00,
2011-08-10 11:43:00,82.6,51.2,29.96,NW,315,2.9,2.9,34,0.00,,,0.00,open2300-1.11,2011-08-10 17:43:00,
2011-08-10 11:53:00,82.8,51.3,29.95,NW,315,0.0,2.9,34,0.00,,,0.00,open2300-1.11,2011-08-10 17:53:00,
2011-08-10 12:03:00,83.1,50.9,29.95,North,0,0.0,0.0,33,0.00,,,0.00,open2300-1.11,2011-08-10 18:03:00,
2011-08-10 12:13:00,84.0,49.3,29.95,NW,315,5.8,5.8,30,0.00,,,0.00,open2300-1.11,2011-08-10 18:13:00,
2011-08-10 12:23:00,84.4,48.5,29.94,WNW,292,1.3,5.8,29,0.00,,,0.00,open2300-1.11,2011-08-10 18:23:00,
2011-08-10 12:33:00,84.9,49.0,29.94,WNW,292,0.0,1.3,29,0.00,,,0.00,open2300-1.11,2011-08-10 18:33:00,
2011-08-10 12:43:00,85.3,48.3,29.94,NW,315,4.0,5.6,28,0.00,,,0.00,open2300-1.11,2011-08-10 18:43:00,
2011-08-10 12:53:00,85.6,47.5,29.94,NW,315,3.1,7.4,27,0.00,,,0.00,open2300-1.11,2011-08-10 18:53:00,
2011-08-10 13:03:00,86.4,47.0,29.94,WNW,292,0.0,3.1,26,0.00,,,0.00,open2300-1.11,2011-08-10 19:03:00,
2011-08-10 13:13:00,86.9,47.5,29.94,North,0,0.0,4.7,26,0.00,,,0.00,open2300-1.11,2011-08-10 19:13:00,
2011-08-10 13:23:00,87.6,47.0,29.93,West,270,0.0,0.0,25,0.00,,,0.00,open2300-1.11,2011-08-10 19:23:00,
2011-08-10 13:33:00,88.0,46.3,29.93,NW,315,0.0,0.0,24,0.00,,,0.00,open2300-1.11,2011-08-10 19:33:00,
2011-08-10 13:43:00,88.5,47.8,29.93,NW,315,0.0,4.2,25,0.00,,,0.00,open2300-1.11,2011-08-10 19:43:00,
2011-08-10 13:53:00,89.1,47.2,29.92,WNW,292,0.0,3.6,24,0.00,,,0.00,open2300-1.11,2011-08-10 19:53:00,
2011-08-10 14:03:00,89.8,47.8,29.92,SSW,202,1.6,5.1,24,0.00,,,0.00,open2300-1.11,2011-08-10 20:03:00,
2011-08-10 14:13:00,90.3,48.2,29.92,WSW,247,4.0,4.0,24,0.00,,,0.00,open2300-1.11,2011-08-10 20:13:00,
2011-08-10 14:23:00,91.0,46.7,29.91,WSW,247,0.0,4.9,22,0.00,,,0.00,open2300-1.11,2011-08-10 20:23:00,
2011-08-10 14:33:00,91.2,46.8,29.91,WNW,292,0.0,4.9,22,0.00,,,0.00,open2300-1.11,2011-08-10 20:33:00,
2011-08-10 14:43:00,91.8,47.3,29.91,WNW,292,0.0,5.8,22,0.00,,,0.00,open2300-1.11,2011-08-10 20:43:00,
2011-08-10 14:53:00,92.1,47.5,29.91,WNW,292,0.0,6.9,22,0.00,,,0.00,open2300-1.11,2011-08-10 20:53:00,
2011-08-10 15:03:00,92.1,46.5,29.91,North,0,2.9,2.9,21,0.00,,,0.00,open2300-1.11,2011-08-10 21:03:00,
2011-08-10 15:13:00,92.7,46.9,29.91,WSW,247,0.0,4.7,21,0.00,,,0.00,open2300-1.11,2011-08-10 21:13:00,
2011-08-10 15:23:00,92.8,47.0,29.90,WNW,292,0.0,0.4,21,0.00,,,0.00,open2300-1.11,2011-08-10 21:23:00,
2011-08-10 15:33:00,92.5,46.7,29.90,WNW,292,0.0,0.0,21,0.00,,,0.00,open2300-1.11,2011-08-10 21:33:00,
2011-08-10 15:43:00,93.2,47.3,29.89,ENE,67,1.3,6.3,21,0.00,,,0.00,open2300-1.11,2011-08-10 21:43:00,
2011-08-10 15:53:00,93.4,47.5,29.89,NW,315,0.0,3.4,21,0.00,,,0.00,open2300-1.11,2011-08-10 21:53:00,
2011-08-10 16:03:00,93.0,49.4,29.89,NNW,337,0.0,0.2,23,0.00,,,0.00,open2300-1.11,2011-08-10 22:03:00,
2011-08-10 16:13:00,93.4,48.6,29.88,WSW,247,0.0,2.0,22,0.00,,,0.00,open2300-1.11,2011-08-10 22:13:00,
2011-08-10 16:23:00,93.7,48.8,29.88,WSW,247,1.3,4.5,22,0.00,,,0.00,open2300-1.11,2011-08-10 22:23:00,
2011-08-10 16:33:00,93.4,48.6,29.88,WNW,292,4.7,5.6,22,0.00,,,0.00,open2300-1.11,2011-08-10 22:33:00,
2011-08-10 16:43:00,93.0,48.3,29.88,West,270,2.7,4.7,22,0.00,,,0.00,open2300-1.11,2011-08-10 22:43:00,
2011-08-10 16:53:00,93.0,47.2,29.87,WSW,247,3.1,11.2,21,0.00,,,0.00,open2300-1.11,2011-08-10 22:53:00,
2011-08-10 17:03:00,93.0,47.2,29.87,SW,225,2.5,4.5,21,0.00,,,0.00,open2300-1.11,2011-08-10 23:03:00,
2011-08-10 17:13:00,93.0,47.2,29.86,West,270,0.4,4.0,21,0.00,,,0.00,open2300-1.11,2011-08-10 23:13:00,
2011-08-10 17:23:00,92.5,47.8,29.86,West,270,6.0,6.0,22,0.00,,,0.00,open2300-1.11,2011-08-10 23:23:00,
2011-08-10 17:33:00,92.3,47.7,29.86,WNW,292,0.0,6.0,22,0.00,,,0.00,open2300-1.11,2011-08-10 23:33:00,
2011-08-10 17:43:00,91.9,47.4,29.86,WSW,247,0.0,1.8,22,0.00,,,0.00,open2300-1.11,2011-08-10 23:43:00,
2011-08-10 17:53:00,91.2,45.7,29.86,WSW,247,0.0,3.1,21,0.00,,,0.00,open2300-1.11,2011-08-10 23:53:00,
2011-08-10 18:03:00,90.7,46.4,29.85,West,270,0.0,0.0,22,0.00,,,0.00,open2300-1.11,2011-08-11 00:03:00,
2011-08-10 18:13:00,90.3,46.1,29.86,West,270,0.0,1.1,22,0.00,,,0.00,open2300-1.11,2011-08-11 00:13:00,
2011-08-10 18:23:00,89.8,45.6,29.85,WNW,292,3.1,3.8,22,0.00,,,0.00,open2300-1.11,2011-08-11 00:23:00,
2011-08-10 18:33:00,89.4,45.3,29.85,WNW,292,0.0,5.6,22,0.00,,,0.00,open2300-1.11,2011-08-11 00:33:00,
2011-08-10 18:43:00,88.9,44.9,29.85,WNW,292,0.0,2.5,22,0.00,,,0.00,open2300-1.11,2011-08-11 00:43:00,
2011-08-10 18:54:00,88.3,44.5,29.85,WNW,292,2.0,2.0,22,0.00,,,0.00,open2300-1.11,2011-08-11 00:54:00,
2011-08-10 19:03:00,87.8,46.2,29.85,West,270,0.0,2.0,24,0.00,,,0.00,open2300-1.11,2011-08-11 01:03:00,
2011-08-10 19:13:00,87.1,44.5,29.85,West,270,0.0,1.6,23,0.00,,,0.00,open2300-1.11,2011-08-11 01:13:00,
2011-08-10 19:23:00,86.7,44.1,29.85,West,270,0.0,0.0,23,0.00,,,0.00,open2300-1.11,2011-08-11 01:23:00,
2011-08-10 19:33:00,86.4,46.0,29.86,WSW,247,0.0,0.0,25,0.00,,,0.00,open2300-1.11,2011-08-11 01:33:00,
2011-08-10 19:43:00,85.8,46.6,29.86,NW,315,1.3,1.3,26,0.00,,,0.00,open2300-1.11,2011-08-11 01:43:00,
2011-08-10 19:53:00,85.3,46.1,29.86,WNW,292,0.0,1.3,26,0.00,,,0.00,open2300-1.11,2011-08-11 01:53:00,
2011-08-10 20:03:00,84.6,45.5,29.87,WNW,292,0.0,0.0,26,0.00,,,0.00,open2300-1.11,2011-08-11 02:03:00,
2011-08-10 20:13:00,84.0,45.0,29.86,NNW,337,0.0,0.0,26,0.00,,,0.00,open2300-1.11,2011-08-11 02:13:00,
2011-08-10 20:23:00,83.3,45.5,29.86,NNW,337,0.0,0.0,27,0.00,,,0.00,open2300-1.11,2011-08-11 02:23:00,
2011-08-10 20:33:00,82.6,44.8,29.87,NNW,337,0.0,0.0,27,0.00,,,0.00,open2300-1.11,2011-08-11 02:33:00,
2011-08-10 20:43:00,82.0,44.4,29.87,NNW,337,0.0,0.0,27,0.00,,,0.00,open2300-1.11,2011-08-11 02:43:00,
2011-08-10 20:53:00,81.3,44.9,29.87,NNW,337,0.0,0.0,28,0.00,,,0.00,open2300-1.11,2011-08-11 02:53:00,
2011-08-10 21:03:00,80.4,44.2,29.87,NNW,337,0.0,0.0,28,0.00,,,0.00,open2300-1.11,2011-08-11 03:03:00,
2011-08-10 21:13:00,79.5,44.4,29.88,NNW,337,0.0,0.0,29,0.00,,,0.00,open2300-1.11,2011-08-11 03:13:00,
2011-08-10 21:23:00,78.6,44.6,29.88,NNW,337,0.0,0.0,30,0.00,,,0.00,open2300-1.11,2011-08-11 03:23:00,
2011-08-10 21:33:00,77.9,44.8,29.89,NNW,337,0.0,0.0,31,0.00,,,0.00,open2300-1.11,2011-08-11 03:33:00,
2011-08-10 21:43:00,77.0,44.8,29.89,NNW,337,0.0,0.0,32,0.00,,,0.00,open2300-1.11,2011-08-11 03:43:00,
2011-08-10 21:53:00,75.7,43.7,29.90,NNW,337,0.0,0.0,32,0.00,,,0.00,open2300-1.11,2011-08-11 03:53:00,
2011-08-10 22:13:00,74.1,43.0,29.90,NNW,337,0.0,0.0,33,0.00,,,0.00,open2300-1.11,2011-08-11 04:13:00,
2011-08-10 22:23:00,73.8,42.7,29.91,NNW,337,0.0,0.0,33,0.00,,,0.00,open2300-1.11,2011-08-11 04:23:00,